Weather History for Tillamook, OR

Change the Weather History Date:

Friday, January 4, 2013

  Actual Average (KMMV) Record (KMMV)
Temperature  
Mean Temperature 47 °F 40 °F  
Max Temperature 53 °F 46 °F 59 °F (1984)
Min Temperature 41 °F 33 °F 17 °F (1947)
Degree Days  
Heating Degree Days 18 25  
Month to date heating degree days 101  
Since 1 July heating degree days 2106  
Cooling Degree Days 0 0  
Month to date cooling degree days 0  
Year to date cooling degree days 0  
Moisture  
Dew Point 46 °F    
Average Humidity 96    
Maximum Humidity 100    
Minimum Humidity 77    
Precipitation  
Precipitation 0.11 in 0.21 in 2.45 in (1956)
Month to date precipitation 0.88  
Year to date precipitation 0.88  
Sea Level Pressure  
Sea Level Pressure 30.23 in    
Wind  
Wind Speed 4 mph (SSE)    
Max Wind Speed 9 mph    
Max Gust Speed 17 mph    
Visibility 6 miles    
Events Fog , Rain    
T = Trace of Precipitation, MM = Missing Value Source: NWS Daily Summary

Daily Weather History Graph

Daily Weather History Graph

Search for Another Location

Airport:

Trip Planner

Search our weather history database for the weather conditions in past years. The results will help you decide how hot, cold, wet, or windy it might be!

Date:

Astronomy

Jan. 04, 2013 Rise Set
Actual Time 8:54 AM MST 5:46 PM MST
Civil Twilight 8:21 AM MST 6:19 PM MST
Nautical Twilight 7:43 AM MST 6:57 PM MST
Astronomical Twilight 7:08 AM MST 7:33 PM MST
Moon 12:48 AM MST (1/4) 12:17 PM MST (1/4)
Length of Visible Light 9h 58m
Length of Day
8h 51m
Waning Gibbous, 54% of the Moon is Illuminated
Jan 4
Waning Gibbous
Jan 4
Last Quarter
Jan 11
New
Jan 18
First Quarter
Jan 26
Full

Hourly Weather History & Observations

Time (MST) Temp. Windchill Dew Point Humidity Pressure Visibility Wind Dir Wind Speed Gust Speed Precip Events Conditions
12:15 AM 48.2 °F - 46.4 °F 93% 30.20 in 3.0 mi South 8.1 mph - 0.03 in   Heavy Drizzle
12:35 AM 48.2 °F - 48.2 °F 100% 30.21 in 4.0 mi South 8.1 mph - 0.03 in Rain Light Rain
12:55 AM 50.0 °F - 48.2 °F 94% 30.21 in 5.0 mi South 6.9 mph 17.3 mph 0.03 in   Drizzle
1:35 AM 50.0 °F - 48.2 °F 94% 30.22 in 3.0 mi SSW 8.1 mph - 0.02 in   Drizzle
1:55 AM 50.0 °F - 48.2 °F 94% 30.22 in 3.0 mi SSW 9.2 mph - 0.02 in   Drizzle
2:15 AM 50.0 °F - 48.2 °F 94% 30.24 in 4.0 mi SSW 9.2 mph 17.3 mph 0.01 in   Drizzle
4:55 AM 48.2 °F - 48.2 °F 100% 30.28 in 4.0 mi Calm Calm - 0.02 in   Light Drizzle
5:15 AM 48.2 °F - 48.2 °F 100% 30.28 in 3.0 mi Calm Calm - N/A Rain Light Rain
5:35 AM 48.2 °F - 48.2 °F 100% 30.28 in 3.0 mi Calm Calm - N/A Rain Light Rain
5:55 AM 48.2 °F - 48.2 °F 100% 30.28 in 3.0 mi Calm Calm - 0.01 in   Overcast
6:15 AM 48.2 °F - 48.2 °F 100% 30.29 in 2.5 mi Calm Calm - N/A   Drizzle
6:35 AM 48.2 °F - 48.2 °F 100% 30.29 in 3.0 mi ESE 3.5 mph - N/A   Overcast
6:55 AM 48.2 °F - 48.2 °F 100% 30.29 in 3.0 mi Calm Calm - N/A   Overcast
7:15 AM 48.2 °F - 48.2 °F 100% 30.29 in 2.5 mi Calm Calm - 0.01 in   Light Drizzle
7:35 AM 48.2 °F - 48.2 °F 100% 30.29 in 2.0 mi SSE 3.5 mph - 0.01 in   Light Drizzle
7:55 AM 48.2 °F - 48.2 °F 100% 30.29 in 7.0 mi Calm Calm - 0.01 in   Overcast
8:15 AM 48.2 °F - 48.2 °F 100% 30.29 in 4.0 mi Calm Calm - 0.01 in   Overcast
8:35 AM 48.2 °F - 48.2 °F 100% 30.29 in 7.0 mi Calm Calm - 0.01 in   Overcast
8:55 AM 46.4 °F 45.2 °F 46.4 °F 100% 30.29 in 10.0 mi ESE 3.5 mph - 0.01 in   Overcast
9:15 AM 46.4 °F - 46.4 °F 100% 30.30 in 1.8 mi Calm Calm - N/A   Overcast
9:35 AM 46.4 °F 45.2 °F 46.4 °F 100% 30.31 in 2.5 mi NNE 3.5 mph - N/A   Overcast
9:55 AM 46.4 °F 45.2 °F 46.4 °F 100% 30.32 in 10.0 mi NE 3.5 mph - N/A   Overcast
10:15 AM 46.4 °F 45.2 °F 46.4 °F 100% 30.32 in 3.0 mi NE 3.5 mph - N/A   Overcast
10:35 AM 46.4 °F - 46.4 °F 100% 30.32 in 10.0 mi Calm Calm - N/A   Overcast
10:55 AM 48.2 °F - 48.2 °F 100% 30.33 in 7.0 mi Calm Calm - N/A   Overcast
11:15 AM 48.2 °F - 48.2 °F 100% 30.32 in 4.0 mi NE 4.6 mph - N/A   Overcast
11:35 AM 48.2 °F - 48.2 °F 100% 30.31 in 10.0 mi NE 3.5 mph - N/A   Scattered Clouds
11:55 AM 48.2 °F - 48.2 °F 100% 30.30 in 10.0 mi Calm Calm - N/A   Clear
12:15 PM 50.0 °F - 50.0 °F 100% 30.29 in 10.0 mi Calm Calm - N/A   Clear
12:35 PM 50.0 °F - 50.0 °F 100% 30.28 in 10.0 mi Calm Calm - N/A   Clear
12:55 PM 51.8 °F - 48.2 °F 88% 30.26 in 10.0 mi Calm Calm - N/A   Clear
1:15 PM 51.8 °F - 48.2 °F 88% 30.25 in 10.0 mi Calm Calm - N/A   Clear
1:35 PM 51.8 °F - 48.2 °F 88% 30.24 in 10.0 mi SSW 3.5 mph - N/A   Clear
1:55 PM 51.8 °F - 48.2 °F 88% 30.23 in 10.0 mi Calm Calm - N/A   Scattered Clouds
2:15 PM 53.6 °F - 48.2 °F 82% 30.22 in 10.0 mi Calm Calm - N/A   Mostly Cloudy
2:35 PM 53.6 °F - 46.4 °F 77% 30.21 in 10.0 mi Calm Calm - N/A   Mostly Cloudy
2:55 PM 51.8 °F - 48.2 °F 88% 30.21 in 10.0 mi West 4.6 mph - N/A   Mostly Cloudy
3:15 PM 51.8 °F - 48.2 °F 88% 30.20 in 10.0 mi NNW 4.6 mph - N/A   Scattered Clouds
3:35 PM 51.8 °F - 48.2 °F 88% 30.19 in 10.0 mi NNW 3.5 mph - N/A   Scattered Clouds
3:55 PM 51.8 °F - 48.2 °F 88% 30.19 in 10.0 mi West 4.6 mph - N/A   Scattered Clouds
4:35 PM 51.8 °F - 48.2 °F 88% 30.19 in 10.0 mi West 4.6 mph - N/A   Clear
4:55 PM 51.8 °F - 48.2 °F 88% 30.19 in 10.0 mi NW 3.5 mph - N/A   Clear
5:15 PM 50.0 °F - 46.4 °F 87% 30.20 in 10.0 mi NW 4.6 mph - N/A   Clear
5:35 PM 50.0 °F - 46.4 °F 87% 30.19 in 7.0 mi Calm Calm - N/A   Clear
5:55 PM 48.2 °F - 46.4 °F 93% 30.19 in 5.0 mi Calm Calm - N/A   Clear
6:15 PM 48.2 °F - 46.4 °F 93% 30.17 in 5.0 mi ENE 3.5 mph - N/A   Clear
6:35 PM 46.4 °F 45.2 °F 42.8 °F 87% 30.17 in 5.0 mi West 3.5 mph - N/A   Clear
6:55 PM 42.8 °F - 42.8 °F 100% 30.17 in 0.8 mi Calm Calm - N/A   Mist
7:15 PM 44.6 °F 41.4 °F 42.8 °F 93% 30.16 in 0.5 mi ESE 5.8 mph - N/A Fog Fog
7:35 PM 44.6 °F 43.1 °F 44.6 °F 100% 30.16 in 0.5 mi South 3.5 mph - N/A Fog Fog
7:55 PM 44.6 °F 43.1 °F 42.8 °F 93% 30.17 in 1.0 mi SSE 3.5 mph - N/A   Mostly Cloudy
8:15 PM 42.8 °F 39.3 °F 42.8 °F 100% 30.16 in 0.8 mi ESE 5.8 mph - N/A   Mist
8:35 PM 44.6 °F 43.1 °F 44.6 °F 100% 30.15 in 3.0 mi SSE 3.5 mph - N/A   Clear
8:55 PM 41.0 °F - 41.0 °F 100% 30.16 in 1.5 mi Calm Calm - N/A   Scattered Clouds
9:15 PM 42.8 °F - 42.8 °F 100% 30.16 in 7.0 mi Calm Calm - N/A   Scattered Clouds
9:35 PM 41.0 °F 38.0 °F 41.0 °F 100% 30.16 in 5.0 mi SE 4.6 mph - N/A   Scattered Clouds
9:55 PM 42.8 °F 41.1 °F 42.8 °F 100% 30.15 in 4.0 mi SSE 3.5 mph - N/A   Clear
10:15 PM 41.0 °F 38.0 °F 41.0 °F 100% 30.15 in 5.0 mi South 4.6 mph - N/A   Clear
10:35 PM 41.0 °F 38.0 °F 41.0 °F 100% 30.15 in 4.0 mi ESE 4.6 mph - N/A   Mostly Cloudy
10:55 PM 41.0 °F 38.0 °F 41.0 °F 100% 30.15 in 7.0 mi ESE 4.6 mph - N/A   Overcast
11:15 PM 41.0 °F 38.0 °F 41.0 °F 100% 30.15 in 10.0 mi SE 4.6 mph - N/A   Overcast
11:35 PM 41.0 °F 39.0 °F 41.0 °F 100% 30.15 in 7.0 mi South 3.5 mph - N/A   Overcast
11:55 PM 41.0 °F - 41.0 °F 100% 30.15 in 7.0 mi Calm Calm - N/A   Mostly Cloudy